Regional Weather Roundup
Issued by NWS

Home | Current Version | Previous Version | Graphics & Text | Print | Product List | Glossary On
Versions: 1 2 3 4 5 6 7 8 9 10 11 12 13 14 15 16 17 18 19 20 21 22 23 24 25 26 27 28 29 30 31 32 33 34 35 36 37 38 39 40 41 42 43 44 45 46 47 48 49 50
000
ASUS44 KMEG 040210
RWRTN
TENNESSEE HOURLY STATE WEATHER ROUNDUP
NATIONAL WEATHER SERVICE MEMPHIS TN
900 PM CDT THU SEP 03 2015

TNZ002-004-019-021-049-052-054-088>092-040300-
WEST TENNESSEE

CITY           SKY/WX    TMP DP  RH WIND       PRES   REMARKS
MEMPHIS INTL   MOCLDY    87  69  54 NE3       29.94R HX  91
NWS MEMPHIS      N/A     79 N/A N/A MISG        N/A
JACKSON        CLEAR     77  73  87 CALM      29.95R
DYERSBURG      CLEAR     77  72  83 CALM      29.95R
UNION CITY     CLEAR     75  72  88 CALM      29.94R
PARIS          CLEAR     75  68  78 CALM      29.97R
LEXINGTON      CLEAR     75  75 100 CALM      29.96R
$$

TNZ008-025-027-028-033-062-065-066-040300-
NORTH MIDDLE TENNESSEE

CITY           SKY/WX    TMP DP  RH WIND       PRES   REMARKS
NASHVILLE      MOCLDY    83  65  54 NW8       29.97R
CLARKSVILLE    CLEAR     76  67  73 CALM      29.96R
SMYRNA         PTCLDY    77  69  76 CALM      29.97R
COOKEVILLE     CLEAR     72  72 100 CALM      29.99S
CROSSVILLE     CLEAR     73  67  81 CALM      30.05R
$$

TNZ061-075-076-078-094-096-097-040300-
SOUTH MIDDLE TENNESSEE

CITY           SKY/WX    TMP DP  RH WIND       PRES   REMARKS
FAYETTEVILLE   PTCLDY    77  70  78 CALM      29.98S
TULLAHOMA      CLEAR     75  70  83 CALM      30.00R
WINCHESTER     CLEAR     73  72  94 CALM      29.99R
MCMINNVILLE    PTCLDY    75  75 100 CALM      30.00R
COLUMBIA       CLEAR     75  75 100 S3        29.96R
SHELBYVILLE    CLEAR     77  73  88 CALM      29.98R
$$

TNZ017-018-042-046-047-040300-
NORTHEAST TENNESSEE

CITY           SKY/WX    TMP DP  RH WIND       PRES   REMARKS
TRI CITIES     PTCLDY    71  66  84 CALM      30.02R
ELIZABETHTON   PTCLDY    68  64  88 CALM      30.03R
$$

TNZ012-013-036-069-073-074-040300-
CENTRAL EAST TENNESSEE

CITY           SKY/WX    TMP DP  RH WIND       PRES   REMARKS
KNOXVILLE      PTCLDY    79  66  64 E3        29.97R
OAK RIDGE      CLEAR     78  67  68 CALM      30.00R
GATLINBURG     MOCLDY    75  64  69 CALM      29.98R
MORRISTOWN     CLEAR     75  68  78 CALM      30.02R
$$

TNZ083-085-099-040300-
SOUTHEAST TENNESSEE

CITY           SKY/WX    TMP DP  RH WIND       PRES   REMARKS
CHATTANOOGA    PTCLDY    79  70  74 CALM      29.96R
$$

SKY/WX REPORTED AS FAIR MEANS FEW OR NO CLOUDS BELOW
12 THOUSAND FEET.




USA.gov is the U.S. government's official web portal to all federal, state and local government web resources and services.